This demonstration page uses our WeatherBlox Daily Observations layout. Learn more.

Left ArrowRight Arrow

Hourly Observations for December 31, 2016

Temp ( °F °C ) Dew Point ( °F °C ) Humidity (%) Winds ( mph kmh ) Pressure ( in mb ) Visibility ( mi km ) Precip ( " mm )
12:51 am 00:51 Mostly Cloudy 49 9.4 42 5.6 77 77 SE 10 17 29.84 1011 10 16 0.00 0.00
1:51 am 01:51 Cloudy with Light Rain 47 8.3 45 7.2 93 93 WNW 5 7 29.86 1011 6 10 0.05 1.27
1:59 am 01:59 Cloudy with Light Rain 47 8.3 45 7.2 93 93 WNW 5 7 29.94 1014 6 10 0.00 0.03
2:08 am 02:08 Cloudy with Light Rain 47 8.3 46 7.8 97 97 WNW 3 6 29.94 1014 5 8 0.02 0.51
2:51 am 02:51 Cloudy with Light Rain 47 8.3 46 7.8 97 97 VRB 3 6 29.85 1011 4 6 0.06 1.52
3:15 am 03:15 Cloudy with Light Rain 47 8.3 46 7.8 97 97 ENE 6 9 29.94 1014 5 8 0.04 1.02
3:51 am 03:51 Cloudy 47 8.3 46 7.8 97 97 Calm 29.85 1011 10 16 0.06 1.52
4:06 am 04:06 Cloudy 47 8.3 45 7.2 93 93 S 3 6 29.88 1012 10 16 0.00 0.00
4:30 am 04:30 Cloudy with Light Rain 47 8.3 46 7.8 97 97 WSW 5 7 29.94 1014 5 8 0.00 0.03
4:51 am 04:51 Cloudy with Rain 47 8.3 46 7.8 97 97 NNW 7 11 29.86 1011 3 5 0.06 1.52
5:09 am 05:09 Cloudy with Light Rain 47 8.3 46 7.8 97 97 N 7 11 29.94 1014 4 6 0.04 1.02
5:51 am 05:51 Mostly Cloudy 47 8.3 45 7.2 93 93 Calm 29.84 1011 10 16 0.05 1.27
6:33 am 06:33 Cloudy 47 8.3 46 7.8 97 97 Calm 29.94 1014 10 16 0.00 0.00
6:43 am 06:43 Cloudy 47 8.3 46 7.8 97 97 Calm 29.94 1014 9 14 0.00 0.00
6:51 am 06:51 Cloudy with Light Rain 47 8.3 46 7.8 97 97 SSW 3 6 29.86 1011 7 11 0.00 0.03
6:59 am 06:59 Cloudy with Light Rain 47 8.3 46 7.8 97 97 SW 7 11 29.94 1014 2 2 0.00 0.03
7:08 am 07:08 Cloudy with Rain 47 8.3 46 7.8 97 97 SW 5 7 29.94 1014 1 1 0.02 0.51
7:15 am 07:15 Cloudy with Light Rain 47 8.3 46 7.8 97 97 Calm 29.94 1014 1 2 0.03 0.76
7:21 am 07:21 Cloudy with Light Rain 47 8.3 46 7.8 97 97 Calm 29.94 1014 1 1 0.03 0.76
7:31 am 07:31 Cloudy with Fog 47 8.3 46 7.8 97 97 Calm 29.94 1014 1 1 0.03 0.76
7:43 am 07:43 Cloudy with Light Rain 47 8.3 46 7.8 97 97 NE 3 6 29.94 1014 1 2 0.03 0.76
7:49 am 07:49 Cloudy with Light Rain 46 8 46 8 100 100 E 3 6 29.94 1014 2 3 0.04 1.02
7:51 am 07:51 Cloudy with Light Rain 47 8.3 46 7.8 97 97 ENE 3 6 29.87 1012 3 5 0.04 1.02
8:17 am 08:17 Cloudy with Light Rain 47 8.3 47 8.3 100 100 Calm 29.94 1014 10 16 0.00 0.03
8:51 am 08:51 Mostly Cloudy with Mist and Fog 47 8.3 47 8.3 100 100 SSE 5 7 29.89 1012 2 3 0.00 0.03
8:59 am 08:59 Cloudy with Mist and Fog 48 8.9 47 8.3 96 96 SE 3 6 29.94 1014 2 3 0.00 0.00
9:08 am 09:08 Cloudy with Mist and Fog 48 8.9 47 8.3 96 96 Calm 29.94 1014 6 10 0.00 0.00
9:51 am 09:51 Cloudy 49 9.4 47 8.3 93 93 ESE 3 6 29.90 1013 10 16 0.00 0.00
10:10 am 10:10 Mostly Cloudy 50 10 47 8.3 89 89 ESE 3 6 29.94 1014 10 16 0.00 0.00
10:41 am 10:41 Mostly Cloudy 51 10.6 47 8.3 86 86 Calm 29.94 1014 10 16 0.00 0.00
10:51 am 10:51 Mostly Cloudy 51 10.6 47 8.3 86 86 ESE 3 6 29.89 1012 10 16 0.00 0.00
11:51 am 11:51 Cloudy 53 11.7 48 8.9 83 83 WSW 5 7 29.87 1012 10 16 0.00 0.00
12:51 pm 12:51 Cloudy 54 12.2 48 8.9 80 80 WNW 13 20 29.85 1011 10 16 0.01 0.25
1:51 pm 13:51 Cloudy 54 12.2 48 8.9 80 80 NW 9 15 29.85 1011 10 16 0.01 0.25
2:51 pm 14:51 Cloudy 56 13.3 46 7.8 70 70 WNW 10 17 29.83 1010 10 16 0.03 0.76
3:51 pm 15:51 Mostly Cloudy 55 12.8 44 6.7 67 67 WNW 8 13 29.85 1011 10 16 0.00 0.00
4:51 pm 16:51 Mostly Cloudy 54 12.2 44 6.7 69 69 WNW 5 7 29.84 1011 10 16 0.00 0.00
5:51 pm 17:51 Cloudy 52 11.1 46 7.8 80 80 SW 6 9 29.85 1011 10 16 0.00 0.00
6:51 pm 18:51 Cloudy 51 10.6 47 8.3 86 86 SW 5 7 29.87 1012 10 16 0.00 0.03
7:51 pm 19:51 Cloudy with Light Rain 50 10 48 8.9 93 93 Calm 29.88 1012 9 14 0.01 0.25
8:51 pm 20:51 Cloudy 49 9.4 48 8.9 97 97 S 5 7 29.88 1012 10 16 0.01 0.25
9:51 pm 21:51 Cloudy 49 9.4 48 8.9 97 97 Calm 29.87 1012 10 16 0.00 0.00
10:51 pm 22:51 Cloudy 49 9.4 48 8.9 97 97 Calm 29.87 1012 9 14 0.00 0.00
11:51 pm 23:51 Cloudy 49 9.4 48 8.9 97 97 E 3 6 29.87 1011 9 14 0.00 0.00

Powered by AerisWeather